Valley City, ND

5:30 PM CST on February 08, 2016 (GMT -0600)
Valley City

Weather History for KBAC - December, 2013

Change the Weather History Date:

Monday, December 23, 2013

  Actual Average (KJMS) Record (KJMS)
Temperature  
Mean Temperature -14 °F 12 °F  
Max Temperature -9 °F 21 °F 52 °F (1936)
Min Temperature -20 °F 3 °F -37 °F (1983)
Degree Days  
Heating Degree Days 80 53  
Month to date heating degree days 1147  
Since 1 July heating degree days 3231  
Cooling Degree Days 0 0  
Month to date cooling degree days 0  
Year to date cooling degree days 446  
Moisture  
Dew Point -21 °F    
Average Humidity 74    
Maximum Humidity 84    
Minimum Humidity 64    
Precipitation  
Precipitation 0.00 in 0.02 in 0.65 in (1937)
Month to date precipitation 0.29  
Year to date precipitation 18.66  
Sea Level Pressure  
Sea Level Pressure 30.44 in    
Wind  
Wind Speed 11 mph (West)    
Max Wind Speed 18 mph    
Max Gust Speed 23 mph    
Visibility 10 miles    
Events Snow    
T = Trace of Precipitation, MM = Missing Value Source: NWS Daily Summary

Daily Weather History Graph

Daily Weather History Graph

Search for Another Location

Airport or City:

Trip Planner

Search our weather history database for the weather conditions in past years. The results will help you decide how hot, cold, wet, or windy it might be!

Date:

Astronomy

Dec. 23, 2013 Rise Set
Actual Time 8:15 AM CST 4:47 PM CST
Civil Twilight 7:40 AM CST 5:22 PM CST
Nautical Twilight 7:01 AM CST 6:01 PM CST
Astronomical Twilight 6:24 AM CST 6:38 PM CST
Moon 11:20 PM CST (12/23) 11:20 AM CST (12/23)
Length of Visible Light 9h 42m
Length of Day
8h 31m
Waning Gibbous, 68% of the Moon is Illuminated
Dec 23
Waning Gibbous
Dec 25
Last Quarter
Jan 1
New
Jan 7
First Quarter
Jan 15
Full

Hourly Weather History & Observations

Time (CST) Temp. Windchill Dew Point Humidity Pressure Visibility Wind Dir Wind Speed Gust Speed Precip Events Conditions
12:15 AM -13.0 °F -33.4 °F -22.0 °F 64% 30.42 in 10.0 mi NNW 11.5 mph - N/A   Overcast
12:35 AM -13.0 °F -32.4 °F -22.0 °F 64% 30.43 in 10.0 mi NNW 10.4 mph - N/A   Overcast
12:55 AM -13.0 °F -36.0 °F -22.0 °F 64% 30.43 in 10.0 mi NW 15.0 mph - N/A   Overcast
1:15 AM -13.0 °F -36.0 °F -22.0 °F 64% 30.43 in 10.0 mi NW 15.0 mph - N/A   Overcast
1:35 AM -14.8 °F -39.1 °F -22.0 °F 70% 30.43 in 10.0 mi NW 16.1 mph - N/A   Overcast
1:55 AM -14.8 °F -39.8 °F -22.0 °F 70% 30.43 in 10.0 mi NNW 17.3 mph - N/A   Scattered Clouds
2:15 AM -14.8 °F -38.3 °F -22.0 °F 70% 30.44 in 10.0 mi NW 15.0 mph - N/A   Clear
2:35 AM -14.8 °F -39.1 °F -22.0 °F 70% 30.45 in 10.0 mi NW 16.1 mph - N/A   Clear
2:55 AM -16.6 °F -38.9 °F -22.0 °F 76% 30.46 in 10.0 mi NW 12.7 mph - N/A   Clear
3:15 AM -16.6 °F -38.9 °F -22.0 °F 76% 30.46 in 10.0 mi NW 12.7 mph - N/A   Clear
3:35 AM -16.6 °F -36.8 °F -22.0 °F 76% 30.47 in 10.0 mi NNW 10.4 mph - N/A   Clear
3:55 AM -16.6 °F -34.4 °F -22.0 °F 76% 30.47 in 10.0 mi North 8.1 mph - N/A   Clear
4:15 AM -16.6 °F -36.8 °F -22.0 °F 76% 30.47 in 10.0 mi NNW 10.4 mph - N/A   Clear
4:35 AM -16.6 °F -35.7 °F -22.0 °F 76% 30.47 in 10.0 mi North 9.2 mph - N/A   Clear
4:55 AM -16.6 °F -36.8 °F -22.0 °F 76% 30.48 in 10.0 mi NNW 10.4 mph - N/A   Clear
5:15 AM -16.6 °F -36.8 °F -22.0 °F 76% 30.48 in 10.0 mi NNW 10.4 mph - N/A   Clear
5:35 AM -16.6 °F -37.9 °F -22.0 °F 76% 30.48 in 10.0 mi NW 11.5 mph - N/A   Clear
5:55 AM -18.4 °F -39.1 °F -23.8 °F 76% 30.48 in 10.0 mi WNW 10.4 mph - N/A   Clear
6:15 AM -18.4 °F -36.6 °F -23.8 °F 76% 30.49 in 10.0 mi NW 8.1 mph - N/A   Clear
6:35 AM -18.4 °F -42.1 °F -22.0 °F 84% 30.49 in 10.0 mi NW 13.8 mph - N/A   Clear
6:55 AM -18.4 °F -37.9 °F -25.6 °F 70% 30.50 in 10.0 mi NW 9.2 mph - N/A   Clear
7:15 AM -18.4 °F -31.4 °F -25.6 °F 70% 30.51 in 10.0 mi NNW 4.6 mph - N/A   Clear
7:35 AM -20.2 °F -40.1 °F -25.6 °F 76% 30.51 in 10.0 mi NW 9.2 mph - N/A   Clear
7:55 AM -20.2 °F -42.4 °F -25.6 °F 76% 30.51 in 10.0 mi NW 11.5 mph - N/A   Clear
8:15 AM -20.2 °F -38.8 °F -25.6 °F 76% 30.51 in 10.0 mi NW 8.1 mph - N/A   Clear
8:35 AM -20.2 °F -42.4 °F -25.6 °F 76% 30.51 in 10.0 mi NW 11.5 mph - N/A   Clear
8:55 AM -20.2 °F -43.4 °F -25.6 °F 76% 30.52 in 10.0 mi WNW 12.7 mph - N/A   Clear
9:15 AM -18.4 °F -39.1 °F -23.8 °F 76% 30.53 in 10.0 mi WNW 10.4 mph - N/A   Clear
9:35 AM -18.4 °F -36.6 °F -23.8 °F 76% 30.53 in 10.0 mi NW 8.1 mph - N/A   Clear
9:55 AM -18.4 °F -33.4 °F -23.8 °F 76% 30.53 in 10.0 mi NW 5.8 mph - N/A   Clear
10:15 AM -16.6 °F -29.3 °F -22.0 °F 76% 30.54 in 10.0 mi NW 4.6 mph - N/A   Clear
10:35 AM -16.6 °F -35.7 °F -22.0 °F 76% 30.54 in 10.0 mi NW 9.2 mph - N/A   Clear
10:55 AM -14.8 °F -33.5 °F -22.0 °F 70% 30.53 in 10.0 mi NW 9.2 mph - N/A   Clear
11:15 AM -13.0 °F -30.0 °F -20.2 °F 70% 30.53 in 10.0 mi NW 8.1 mph - N/A   Clear
11:35 AM -13.0 °F -27.0 °F -20.2 °F 70% 30.52 in 10.0 mi WNW 5.8 mph - N/A   Clear
11:55 AM -13.0 °F -25.1 °F -20.2 °F 70% 30.51 in 10.0 mi NW 4.6 mph - N/A Snow Light Snow
12:15 PM -11.2 °F -23.0 °F -18.4 °F 70% 30.50 in 10.0 mi NW 4.6 mph - N/A   Clear
12:35 PM -11.2 °F - -18.4 °F 70% 30.49 in 10.0 mi Calm Calm - N/A   Clear
12:55 PM -11.2 °F -26.4 °F -18.4 °F 70% 30.48 in 10.0 mi West 6.9 mph - N/A Snow Light Snow
1:15 PM -11.2 °F -27.8 °F -16.6 °F 77% 30.48 in 10.0 mi West 8.1 mph - N/A   Clear
1:35 PM -9.4 °F -22.7 °F -16.6 °F 71% 30.48 in 10.0 mi WSW 5.8 mph - N/A   Clear
1:55 PM -9.4 °F -22.7 °F -16.6 °F 71% 30.47 in 10.0 mi West 5.8 mph - N/A   Clear
2:15 PM -9.4 °F -20.9 °F -16.6 °F 71% 30.47 in 10.0 mi WSW 4.6 mph - N/A Snow Light Snow
2:35 PM -9.4 °F -22.7 °F -16.6 °F 71% 30.47 in 10.0 mi WSW 5.8 mph - N/A   Clear
2:55 PM -9.4 °F -18.6 °F -16.6 °F 71% 30.46 in 10.0 mi WSW 3.5 mph - N/A   Clear
3:15 PM -9.4 °F -20.9 °F -16.6 °F 71% 30.46 in 10.0 mi SSW 4.6 mph - N/A   Clear
3:35 PM -9.4 °F -22.7 °F -16.6 °F 71% 30.45 in - SW 5.8 mph - N/A   Clear
3:55 PM -9.4 °F -24.3 °F -16.6 °F 71% 30.46 in - SW 6.9 mph - N/A Snow Heavy Snow
4:15 PM -11.2 °F -24.8 °F -16.6 °F 77% 30.45 in - SSW 5.8 mph - N/A   Clear
4:35 PM -11.2 °F -23.0 °F -18.4 °F 70% 30.45 in - SSW 4.6 mph - N/A   Clear
4:55 PM -11.2 °F -26.4 °F -16.6 °F 77% 30.43 in - South 6.9 mph - N/A   Clear
5:15 PM -13.0 °F -27.0 °F -18.4 °F 77% 30.43 in - South 5.8 mph - N/A   Clear
5:35 PM -13.0 °F -27.0 °F -18.4 °F 77% 30.42 in - South 5.8 mph - N/A   Clear
5:55 PM -16.6 °F -32.9 °F -20.2 °F 84% 30.42 in - South 6.9 mph - N/A   Unknown
6:15 PM -16.6 °F -34.4 °F -20.2 °F 84% 30.43 in - SSW 8.1 mph - N/A   Unknown
6:35 PM -16.6 °F -32.9 °F -20.2 °F 84% 30.42 in - South 6.9 mph - N/A   Unknown
6:55 PM -14.8 °F -32.2 °F -20.2 °F 77% 30.40 in - South 8.1 mph - N/A   Clear
7:15 PM -16.6 °F -35.7 °F -20.2 °F 84% 30.40 in - South 9.2 mph - N/A   Unknown
7:35 PM -16.6 °F -35.7 °F -20.2 °F 84% 30.38 in - South 9.2 mph - N/A   Unknown
7:55 PM -16.6 °F -35.7 °F -20.2 °F 84% 30.38 in - South 9.2 mph - N/A   Unknown
8:15 PM -16.6 °F -35.7 °F -20.2 °F 84% 30.37 in - SSW 9.2 mph - N/A   Unknown
8:35 PM -14.8 °F -36.6 °F -18.4 °F 84% 30.37 in - SSW 12.7 mph - N/A   Unknown
8:55 PM -13.0 °F -34.3 °F -18.4 °F 77% 30.35 in - South 12.7 mph - N/A   Clear
9:15 PM -13.0 °F -34.3 °F -18.4 °F 77% 30.34 in - South 12.7 mph - N/A   Clear
9:35 PM -13.0 °F -34.3 °F -18.4 °F 77% 30.32 in - South 12.7 mph - N/A   Clear
9:55 PM -13.0 °F -35.2 °F -18.4 °F 77% 30.32 in 10.0 mi South 13.8 mph - N/A   Clear
10:15 PM -11.2 °F -33.7 °F -18.4 °F 70% 30.30 in 10.0 mi South 15.0 mph - N/A   Clear
10:35 PM -13.0 °F -36.0 °F -18.4 °F 77% 30.30 in 10.0 mi SSW 15.0 mph - N/A   Clear
10:55 PM -13.0 °F -36.0 °F -18.4 °F 77% 30.29 in 10.0 mi South 15.0 mph - N/A   Clear
11:15 PM -11.2 °F -35.2 °F -18.4 °F 70% 30.27 in 10.0 mi South 17.3 mph - N/A   Clear
11:35 PM -11.2 °F -35.8 °F -18.4 °F 70% 30.27 in 10.0 mi South 18.4 mph 23.0 mph N/A   Clear
11:55 PM -11.2 °F -35.2 °F -18.4 °F 70% 30.26 in 10.0 mi South 17.3 mph - N/A   Clear